Date,TemperatureHighF,TemperatureAvgF,TemperatureLowF,DewpointHighF,DewpointAvgF,DewpointLowF,HumidityHigh,HumidityAvg,HumidityLow,PressureMaxIn,PressureMinIn,WindSpeedMaxMPH,WindSpeedAvgMPH,GustSpeedMaxMPH,PrecipitationSumIn
2013-3-1,53.2,46.8,38.5,44.9,36.9,31.8,97,71,48,30.32,30.26,13,2,13,0.00
2013-3-2,55.9,46.7,37.6,35.4,31.1,27.2,79,56,36,30.26,29.91,11,2,11,0.00
2013-3-3,44.6,37.6,29.5,27.6,11.6,3.6,52,35,21,30.14,29.88,19,4,19,0.00
2013-3-4,46.9,33.0,24.6,16.7,10.3,2.7,66,41,20,30.26,30.06,8,1,8,0.00
2013-3-5,43.7,34.3,27.1,20.8,12.7,6.6,59,41,28,30.06,29.85,8,1,8,0.00
2013-3-6,47.5,38.1,32.5,35.2,25.3,18.2,86,61,41,29.85,29.61,12,1,12,0.08
2013-3-7,45.5,36.5,29.5,36.2,31.0,24.8,93,81,46,30.06,29.85,9,0,9,0.24
2013-3-8,40.6,33.3,30.2,33.1,30.1,26.5,98,89,59,30.11,30.03,4,0,4,0.00
2013-3-9,47.5,36.1,30.0,33.0,26.1,17.4,97,71,32,30.38,30.11,6,0,6,0.00
2013-3-10,47.7,34.5,25.9,32.3,20.5,-99.9,88,65,34,30.38,30.20,11,1,11,0.00
2013-3-11,48.4,37.6,29.3,33.5,21.0,-99.9,94,59,22,30.29,30.17,9,1,9,0.00
2013-3-12,54.1,41.1,34.9,39.7,21.3,-99.9,84,54,39,30.20,30.03,15,1,15,0.04
2013-3-13,59.7,50.2,41.7,38.2,32.4,28.6,71,52,33,30.17,30.08,11,1,11,0.00
2013-3-14,62.8,51.0,42.3,38.7,32.6,22.2,82,52,26,30.14,29.97,9,1,9,0.00
2013-3-15,61.7,47.4,36.9,33.7,23.8,-99.9,70,43,25,30.14,30.03,13,3,13,0.00
2013-3-16,55.4,44.8,37.4,31.3,27.0,16.1,74,51,29,30.03,29.70,14,3,14,0.00
2013-3-17,50.2,37.4,30.0,17.5,11.7,1.3,52,36,14,30.00,29.73,15,4,15,0.00
2013-3-18,47.3,34.5,25.9,20.8,15.1,8.1,63,46,22,30.14,29.94,13,3,14,0.00
2013-3-19,48.6,30.8,21.9,22.7,1.6,-99.9,82,45,16,30.23,29.85,13,1,13,0.00
2013-3-20,54.1,31.1,36.0,42.9,-6.1,-99.9,93,44,39,29.85,29.52,15,3,15,0.20
2013-3-21,46.9,35.0,26.6,20.5,13.2,3.0,68,42,17,30.00,29.82,17,4,17,0.00
2013-3-22,45.3,23.5,24.4,20.5,-12.4,-99.9,78,41,18,30.20,30.00,16,2,16,0.00
2013-3-23,45.1,26.0,19.8,18.2,-4.9,-99.9,79,42,28,30.29,30.17,11,1,11,0.00
2013-3-24,45.0,31.5,20.8,20.8,9.9,-4.3,81,47,15,30.29,30.14,8,1,8,0.00
2013-3-25,50.5,35.0,19.9,16.2,10.9,5.8,66,39,19,30.14,29.97,7,1,7,0.00
2013-3-26,55.8,39.5,24.3,19.9,15.8,12.0,70,41,20,30.00,29.91,8,1,8,0.00
2013-3-27,58.6,43.9,31.8,31.8,22.4,16.9,70,44,27,30.00,29.94,9,0,9,0.00
2013-3-28,63.0,47.4,34.2,35.8,29.3,24.4,87,54,26,30.06,29.97,8,1,8,0.00
2013-3-29,65.5,48.2,35.8,35.6,24.4,10.9,85,45,16,30.17,30.06,12,2,12,0.00
2013-3-30,63.7,46.7,31.6,30.7,24.5,18.6,83,46,18,30.26,30.08,6,1,6,0.00
2013-3-31,66.4,49.1,33.1,34.5,23.5,11.1,85,44,12,30.08,29.91,6,1,6,0.00